FLOCK 2B-10

Last updated on Wed Oct 12 2016 06:19:10 GMT+0100 (British Summer Time)

1 40962U 98067HK 16285.78269397 .12971693 12268-4 83020-3 0 9991 2 40962 51.6336 142.1218 0019249 247.2393 114.4131 16.39677844 58363

Satellite not in orbit